ONEWEB-0038, 45145

Orbit data source: Space-Track

ONEWEB-0038, 45145 is a payload satellite owned by One Web (UK) in LEO that was launched on Thu, 06 Feb 2020 UTC via a SOYUZ-2-1B launch vehicle from the Tyuratam Missile And Space Complex (TTMTR). Payload-class satellites include a variety of spacecraft equipped with specific instruments for various scientific and technological missions. These include communications satellites like Starlink; space stations such as the ISS; scientific satellites like the Hubble; Earth observation satellites from companies like Planet Labs, Umbra, and HawkEye 360; GPS; miniature CubeSats for education and research; and military/defense satellites.

Loading next visibility...
Identifier
45145, 2020-008Q
Orbit
LEO
Country
Flag of UKUK
Related business
Manufacturer
One Web
Mission
Operational Commercial Communications
Bus & Motor
ARROW, Unknown motor
Mass
148 kg wet, ~140 kg dry
Launch date (UTC)
2020-02-06 (6 years ago)
Launch vehicle
SOYUZ-2-1B
Launch site
Tyuratam Missile And Space Complex (TTMTR)
Object type
Payload
Rocket body
Debris
Shape & HBR
Trap Box + 2 Pan, 6.7 m
Radar Cross Section
3.464 m², Large (>1 m²)

Expand to show TLE details & history
Last TLE update: 12 hours ago

TLE from 12 hours ago
0 ONEWEB-0038
1 45145U 20008Q   26126.43453477 -.00000103  00000-0 -32741-3 0  9999
2 45145  87.8938  29.3738 0003212  54.4617 305.6810 13.11416920304852
Epoch: 2026-05-06T10:25Z
TLE epoch observation values (Epoch: 2026-05-06T10:25:43.804Z)
Latitude
-0.00001°
Longitude
8.6462°
Altitude
1,219.149 km
Speed
7.245 km/s
True Right ascension
01h 57m 29s
True Declination
0° 00' 00"
Sunlit
Object was in daylight at epoch
Visualization orbit readout
Latitude
Unknown
Longitude
Unknown
Altitude
Unknown
Speed
Unknown
Apparent Right ascension
Unknown
Apparent Declination
Unknown
Sunlit
N/A
Visualization observer readout
Local Sidereal Time
06:10:43
Azimuth
Unknown
Elevation
Unknown
Doppler factor
Unknown
Orbital elements
Apogee altitude
1,217.24 km
Perigee altitude
1,212.362 km
Semi-major axis
7,592.938 km
Eccentricity
0.00032
Inclination
87.8938°
RAAN
29.3738°
Arg. of periapsis
54.4617°
True anomaly
305.6511°
Mean anomaly
305.681°
Eccentric anomaly
305.66605°
Mean motion
3.28041 °/min
Orbital period
109.74 mins
BSTAR
-0.00032741
Loading maneuver chart data...
Computing Atmospheric mass density...
Loading historical data...
Loading historical data...
Loading historical data...
Loading historical data...
Loading historical data...
Loading historical data...
Loading historical data...

Documentation

Showing up to 5 results
|